TimeCDT,TemperatureF,Dew PointF,Humidity,Sea Level PressureIn,VisibilityMPH,Wind Direction,Wind SpeedMPH,Gust SpeedMPH,PrecipitationIn,Events,Conditions,WindDirDegrees,DateUTC
12:15 AM,71.6,60.8,69,29.85,10.0,North,3.5,-,N/A,,Clear,350,2013-06-15 05:15:00
12:35 AM,71.6,60.8,69,29.85,10.0,NW,5.8,-,N/A,,Clear,320,2013-06-15 05:35:00
12:55 AM,71.6,60.8,69,29.86,10.0,SSE,6.9,-,N/A,,Clear,150,2013-06-15 05:55:00
1:15 AM,69.8,60.8,73,29.87,10.0,Calm,Calm,-,N/A,,Clear,0,2013-06-15 06:15:00
1:35 AM,69.8,60.8,73,29.88,10.0,NW,5.8,-,N/A,,Clear,310,2013-06-15 06:35:00
1:55 AM,69.8,60.8,73,29.89,10.0,NW,10.4,-,N/A,,Clear,310,2013-06-15 06:55:00
2:15 AM,68.0,60.8,78,29.89,10.0,WNW,6.9,-,N/A,,Clear,300,2013-06-15 07:15:00
2:35 AM,66.2,60.8,83,29.91,10.0,NNE,3.5,-,N/A,,Clear,30,2013-06-15 07:35:00
2:55 AM,66.2,60.8,83,29.90,10.0,NE,10.4,-,N/A,,Clear,50,2013-06-15 07:55:00
3:15 AM,66.2,60.8,83,29.89,10.0,NE,9.2,-,N/A,,Clear,50,2013-06-15 08:15:00
3:35 AM,66.2,60.8,83,29.87,10.0,ENE,10.4,-,N/A,,Clear,70,2013-06-15 08:35:00
3:55 AM,66.2,60.8,83,29.86,10.0,East,8.1,-,N/A,,Clear,90,2013-06-15 08:55:00
4:15 AM,66.2,60.8,83,29.86,10.0,East,5.8,-,N/A,,Clear,80,2013-06-15 09:15:00
4:35 AM,66.2,60.8,83,29.87,10.0,East,4.6,-,N/A,,Clear,100,2013-06-15 09:35:00
4:55 AM,66.2,60.8,83,29.88,10.0,East,6.9,-,N/A,,Clear,100,2013-06-15 09:55:00
5:15 AM,64.4,59.0,83,29.87,10.0,East,6.9,-,N/A,,Clear,90,2013-06-15 10:15:00
5:35 AM,64.4,59.0,83,29.87,10.0,East,5.8,-,N/A,,Clear,100,2013-06-15 10:35:00
5:55 AM,64.4,59.0,83,29.89,10.0,Calm,Calm,-,N/A,,Partly Cloudy,0,2013-06-15 10:55:00
6:15 AM,64.4,59.0,83,29.89,9.0,Calm,Calm,-,N/A,,Clear,0,2013-06-15 11:15:00
6:35 AM,64.4,60.8,88,29.88,8.0,Calm,Calm,-,N/A,,Clear,0,2013-06-15 11:35:00
6:55 AM,64.4,60.8,88,29.89,7.0,Calm,Calm,-,N/A,,Clear,0,2013-06-15 11:55:00
7:15 AM,64.4,60.8,88,29.89,9.0,Calm,Calm,-,N/A,,Clear,0,2013-06-15 12:15:00
7:35 AM,66.2,60.8,83,29.89,9.0,NE,3.5,-,N/A,,Scattered Clouds,40,2013-06-15 12:35:00
7:55 AM,66.2,62.6,88,29.89,10.0,Calm,Calm,-,N/A,,Partly Cloudy,0,2013-06-15 12:55:00
8:15 AM,68.0,62.6,83,29.91,10.0,WNW,4.6,-,N/A,,Partly Cloudy,300,2013-06-15 13:15:00
8:35 AM,68.0,62.6,83,29.94,10.0,West,8.1,-,N/A,,Mostly Cloudy,280,2013-06-15 13:35:00
8:55 AM,69.8,62.6,78,29.97,10.0,West,8.1,-,N/A,,Overcast,260,2013-06-15 13:55:00
9:15 AM,71.6,62.6,73,29.97,10.0,NW,12.7,20.7,N/A,,Overcast,310,2013-06-15 14:15:00
9:35 AM,71.6,60.8,69,29.98,10.0,NNW,8.1,-,N/A,,Overcast,340,2013-06-15 14:35:00
9:55 AM,71.6,60.8,69,29.97,10.0,North,6.9,-,N/A,Thunderstorm,Partly Cloudy,10,2013-06-15 14:55:00
10:15 AM,71.6,60.8,69,29.97,10.0,North,8.1,-,N/A,,Clear,10,2013-06-15 15:15:00
10:35 AM,73.4,62.6,69,29.95,10.0,NNE,13.8,18.4,N/A,,Clear,20,2013-06-15 15:35:00
10:55 AM,73.4,60.8,65,29.94,10.0,North,12.7,-,N/A,,Clear,10,2013-06-15 15:55:00
11:15 AM,73.4,60.8,65,29.94,10.0,NE,10.4,-,N/A,,Clear,50,2013-06-15 16:15:00
11:35 AM,73.4,62.6,69,29.94,10.0,ENE,9.2,-,N/A,,Clear,60,2013-06-15 16:35:00
11:55 AM,73.4,60.8,65,29.93,10.0,ENE,9.2,-,N/A,,Clear,70,2013-06-15 16:55:00
12:15 PM,73.4,60.8,65,29.94,10.0,SE,6.9,-,N/A,,Clear,130,2013-06-15 17:15:00
12:35 PM,73.4,62.6,69,29.96,10.0,SSE,10.4,-,N/A,,Clear,150,2013-06-15 17:35:00
12:55 PM,75.2,62.6,65,29.98,10.0,South,4.6,-,N/A,,Clear,170,2013-06-15 17:55:00
1:15 PM,77.0,62.6,61,30.00,10.0,Calm,Calm,-,N/A,,Partly Cloudy,0,2013-06-15 18:15:00
1:35 PM,78.8,62.6,57,29.99,10.0,ENE,3.5,-,N/A,,Clear,60,2013-06-15 18:35:00
1:55 PM,80.6,64.4,58,29.98,10.0,Calm,Calm,-,N/A,,Clear,0,2013-06-15 18:55:00
2:15 PM,80.6,64.4,58,29.96,10.0,ENE,4.6,-,N/A,,Partly Cloudy,70,2013-06-15 19:15:00
2:35 PM,80.6,64.4,58,29.95,10.0,ENE,4.6,-,N/A,,Mostly Cloudy,60,2013-06-15 19:35:00
2:55 PM,82.4,64.4,54,29.93,8.0,ESE,5.8,-,N/A,,Mostly Cloudy,120,2013-06-15 19:55:00
3:15 PM,82.4,62.6,51,29.92,10.0,SSE,6.9,-,N/A,,Mostly Cloudy,150,2013-06-15 20:15:00
3:35 PM,82.4,60.8,48,29.91,10.0,ESE,6.9,-,N/A,,Scattered Clouds,120,2013-06-15 20:35:00
3:55 PM,82.4,60.8,48,29.90,10.0,SE,9.2,-,N/A,,Clear,130,2013-06-15 20:55:00
4:15 PM,82.4,60.8,48,29.90,10.0,SE,5.8,-,N/A,,Clear,130,2013-06-15 21:15:00
4:35 PM,82.4,60.8,48,29.90,10.0,ENE,6.9,-,N/A,,Clear,70,2013-06-15 21:35:00
4:55 PM,82.4,59.0,45,29.90,10.0,Calm,Calm,-,N/A,,Clear,0,2013-06-15 21:55:00
5:15 PM,82.4,59.0,45,29.90,10.0,NE,6.9,-,N/A,,Clear,50,2013-06-15 22:15:00
5:35 PM,84.2,60.8,45,29.90,10.0,ENE,6.9,-,N/A,,Clear,60,2013-06-15 22:35:00
5:55 PM,84.2,60.8,45,29.90,10.0,ENE,6.9,-,N/A,,Clear,70,2013-06-15 22:55:00
6:15 PM,84.2,60.8,45,29.90,10.0,ENE,6.9,-,N/A,,Scattered Clouds,60,2013-06-15 23:15:00
6:35 PM,84.2,60.8,45,29.90,10.0,ENE,5.8,-,N/A,,Scattered Clouds,60,2013-06-15 23:35:00
6:55 PM,82.4,62.6,51,29.89,10.0,NE,5.8,-,N/A,,Partly Cloudy,40,2013-06-15 23:55:00
7:15 PM,82.4,62.6,51,29.90,10.0,NNE,10.4,-,N/A,,Clear,30,2013-06-16 00:15:00
7:35 PM,80.6,64.4,58,29.90,10.0,NE,9.2,-,N/A,,Partly Cloudy,40,2013-06-16 00:35:00
7:55 PM,80.6,64.4,58,29.91,10.0,NE,6.9,-,N/A,,Partly Cloudy,40,2013-06-16 00:55:00
8:15 PM,78.8,64.4,61,29.91,10.0,NE,9.2,-,N/A,,Clear,40,2013-06-16 01:15:00
8:35 PM,78.8,62.6,57,29.92,10.0,NE,8.1,-,N/A,,Clear,50,2013-06-16 01:35:00
8:55 PM,75.2,62.6,65,29.93,10.0,NE,5.8,-,N/A,,Clear,50,2013-06-16 01:55:00
9:15 PM,75.2,62.6,65,29.94,10.0,ENE,5.8,-,N/A,,Clear,60,2013-06-16 02:15:00
9:35 PM,71.6,62.6,73,29.94,10.0,ENE,4.6,-,N/A,,Clear,60,2013-06-16 02:35:00
9:55 PM,71.6,62.6,73,29.94,10.0,ENE,3.5,-,N/A,,Clear,70,2013-06-16 02:55:00
10:15 PM,71.6,62.6,73,29.95,10.0,NE,4.6,-,N/A,,Scattered Clouds,50,2013-06-16 03:15:00
10:35 PM,71.6,62.6,73,29.96,10.0,NNE,4.6,-,N/A,,Mostly Cloudy,30,2013-06-16 03:35:00
10:55 PM,71.6,62.6,73,29.96,10.0,NE,4.6,-,N/A,,Partly Cloudy,40,2013-06-16 03:55:00
11:15 PM,71.6,62.6,73,29.98,10.0,SSE,3.5,-,N/A,,Scattered Clouds,150,2013-06-16 04:15:00
11:35 PM,71.6,62.6,73,29.98,7.0,Calm,Calm,-,N/A,,Scattered Clouds,0,2013-06-16 04:35:00
11:55 PM,69.8,62.6,78,29.98,10.0,East,4.6,-,N/A,,Partly Cloudy,80,2013-06-16 04:55:00